Hlavní strana
METAR-TAF:

METAR-TAF

Letiště :

Gatlinburg, Tennessee, Spojené státy americké

zeměpisná šířka: 35-51-28N, zeměpisná délka: 083-31-43W, výška: 309 m

Aktuální stav počasí

Zpráva byla vytvořena před 34 minutami, v 02:15 UTC
Bezvětří
Teplota -2°C
Vlhkost vzduchu 80%
Tlak 1033 hPa
Viditelnost: 16.1 km
Jasno

METAR: KGKT 220215Z AUTO 00000KT 10SM CLR M02/M05 A3051 RMK A01

Čas: 20:49 (02:49 UTC)


TAF: chybějící

Stav a předpovědi počasí z více než 4 000 letišť (zprávy METAR a TAF).

Červené a žluté tečky na mapě představují dostupné meteorologické stanice.

Když kurzor umístíte na tečku, zobrazí se název stanice.

Pak kliknutím zobrazíte stav a předpověď počasí.

Chcete-li změnit mapu, kliknutím na zelené tlačítko se znaménkem +mapu přiblížíte, kliknutím na zelené tlačítko se znaménkem – mapu oddálíte a kliknutím na zelené šipky přejdete na sousední mapy.


METAR-TAF: